Simultaneous Nadir Overpasses (SNOs) Predictions

Prediction of SNOs between AQUA and GOES-15 Satellite Orbit:

Table of predicted SNOs for the next 14.0 days since TLE Epoch: 12/23/2023
Index Date Time (AQUA) AQUA Lat,Lon GOES-15 Lat,Lon Distance(km) Time Diff (sec)
1 12/24/2023 21:36:45 -0.92, 65.45 -0.04, 61.24 478.22 80
2 12/25/2023 09:57:22 -0.11, 60.45 0.05, 61.34 100.80 80
3 12/27/2023 09:42:06 0.65, 64.19 0.04, 61.36 320.91 80
4 12/27/2023 22:02:34 0.41, 59.23 -0.05, 61.26 231.93 80
5 12/29/2023 21:47:18 -0.41, 62.96 -0.05, 61.29 189.65 80
6 12/30/2023 10:07:53 -0.70, 57.98 0.06, 61.41 390.55 80
7 01/01/2024 09:52:36 0.13, 61.71 0.06, 61.43 31.70 80
8 01/03/2024 09:37:17 0.89, 65.46 0.05, 61.46 454.13 80
9 01/03/2024 21:57:44 0.13, 60.50 -0.06, 61.35 97.51 80
10 01/05/2024 21:42:26 -0.69, 64.24 -0.05, 61.39 324.60 80
